TimeEST,TemperatureF,Dew PointF,Humidity,Sea Level PressureIn,VisibilityMPH,Wind Direction,Wind SpeedMPH,Gust SpeedMPH,PrecipitationIn,Events,Conditions,WindDirDegrees,DateUTC
12:15 AM,34.3,34.2,99,30.00,10.0,Calm,Calm,-,N/A,,Clear,0,2014-03-08 05:15:00
12:35 AM,34.0,34.0,100,30.00,10.0,Calm,Calm,-,N/A,,Clear,0,2014-03-08 05:35:00
12:55 AM,33.3,33.1,99,30.00,5.0,Calm,Calm,-,N/A,,Clear,0,2014-03-08 05:55:00
1:15 AM,32.5,32.4,99,30.00,5.0,Calm,Calm,-,N/A,,Clear,0,2014-03-08 06:15:00
1:35 AM,32.0,32.0,100,30.01,10.0,Calm,Calm,-,N/A,,Clear,0,2014-03-08 06:35:00
1:55 AM,32.0,32.0,100,30.01,7.0,Calm,Calm,-,N/A,,Clear,0,2014-03-08 06:55:00
2:15 AM,31.3,31.3,100,30.00,10.0,Calm,Calm,-,N/A,,Clear,0,2014-03-08 07:15:00
2:35 AM,34.3,34.3,100,29.99,10.0,ENE,4.6,-,N/A,,Clear,70,2014-03-08 07:35:00
2:55 AM,31.6,31.5,99,30.00,10.0,Calm,Calm,-,N/A,,Clear,0,2014-03-08 07:55:00
3:15 AM,30.9,30.9,100,30.00,10.0,Calm,Calm,-,N/A,,Clear,0,2014-03-08 08:15:00
3:35 AM,31.8,31.8,100,30.00,7.0,Calm,Calm,-,N/A,,Clear,0,2014-03-08 08:35:00
3:55 AM,31.1,31.1,100,30.00,10.0,Calm,Calm,-,N/A,,Clear,0,2014-03-08 08:55:00
4:15 AM,30.4,30.2,99,30.00,10.0,NNW,3.5,-,N/A,,Clear,330,2014-03-08 09:15:00
4:35 AM,31.1,31.1,100,30.01,10.0,Calm,Calm,-,N/A,,Clear,0,2014-03-08 09:35:00
4:55 AM,30.2,30.2,100,30.02,10.0,Calm,Calm,-,N/A,,Clear,0,2014-03-08 09:55:00
5:15 AM,31.1,30.9,99,30.02,10.0,North,3.5,-,N/A,,Clear,350,2014-03-08 10:15:00
5:35 AM,30.2,30.2,100,30.03,10.0,Calm,Calm,-,N/A,,Clear,0,2014-03-08 10:35:00
5:55 AM,31.1,31.1,100,30.04,10.0,Calm,Calm,-,N/A,,Clear,0,2014-03-08 10:55:00
6:15 AM,32.7,32.7,100,30.05,10.0,Calm,Calm,-,N/A,,Clear,0,2014-03-08 11:15:00
6:35 AM,30.2,29.8,99,30.05,10.0,SSW,3.5,-,N/A,,Clear,200,2014-03-08 11:35:00
6:55 AM,31.3,30.7,98,30.06,10.0,Calm,Calm,-,N/A,,Clear,0,2014-03-08 11:55:00
7:15 AM,31.1,30.6,98,30.06,10.0,Calm,Calm,-,N/A,,Clear,0,2014-03-08 12:15:00
7:35 AM,31.3,31.1,99,30.08,10.0,Calm,Calm,-,N/A,,Clear,0,2014-03-08 12:35:00
7:55 AM,34.0,33.8,99,30.08,10.0,Calm,Calm,-,N/A,,Clear,0,2014-03-08 12:55:00
8:15 AM,37.2,36.3,97,30.09,10.0,Calm,Calm,-,N/A,,Clear,0,2014-03-08 13:15:00
8:35 AM,41.2,39.7,95,30.09,10.0,Calm,Calm,-,N/A,,Clear,0,2014-03-08 13:35:00
8:55 AM,42.8,40.5,91,30.09,10.0,Calm,Calm,-,N/A,,Clear,0,2014-03-08 13:55:00
9:10 AM,46.8,41.0,80,30.09,10.0,Calm,Calm,-,N/A,,Clear,0,2014-03-08 14:10:00
9:35 AM,49.8,40.6,71,30.09,10.0,West,4.6,-,N/A,,Clear,270,2014-03-08 14:35:00
9:55 AM,51.3,42.4,72,30.09,10.0,SSW,3.5,-,N/A,,Clear,210,2014-03-08 14:55:00
10:15 AM,54.1,41.2,62,30.09,10.0,Calm,Calm,-,N/A,,Clear,0,2014-03-08 15:15:00
10:35 AM,55.8,40.8,57,30.09,10.0,Calm,Calm,-,N/A,,Clear,0,2014-03-08 15:35:00
10:55 AM,57.4,39.4,51,30.09,10.0,Calm,Calm,-,N/A,,Clear,0,2014-03-08 15:55:00
11:15 AM,59.9,41.2,50,30.08,10.0,South,5.8,-,N/A,,Clear,180,2014-03-08 16:15:00
11:35 AM,60.6,40.1,47,30.09,10.0,Calm,Calm,-,N/A,,Clear,0,2014-03-08 16:35:00
11:55 AM,61.9,39.7,44,30.08,10.0,SSW,4.6,-,N/A,,Clear,210,2014-03-08 16:55:00
12:15 PM,63.9,39.6,41,30.07,10.0,West,3.5,-,N/A,,Clear,270,2014-03-08 17:15:00
12:35 PM,64.4,39.7,40,30.06,10.0,SW,10.4,20.7,N/A,,Clear,220,2014-03-08 17:35:00
12:55 PM,65.1,38.1,37,30.04,10.0,Calm,Calm,-,N/A,,Clear,0,2014-03-08 17:55:00
1:15 PM,66.4,34.7,31,30.02,10.0,Calm,Calm,-,N/A,,Clear,0,2014-03-08 18:15:00
1:35 PM,67.8,35.2,30,30.01,10.0,SW,6.9,19.6,N/A,,Clear,230,2014-03-08 18:35:00
1:55 PM,68.4,29.8,24,30.01,10.0,WSW,8.1,20.7,N/A,,Clear,250,2014-03-08 18:55:00
2:15 PM,68.7,31.5,25,29.99,10.0,SW,6.9,-,N/A,,Clear,220,2014-03-08 19:15:00
2:35 PM,69.1,32.5,26,29.99,10.0,West,5.8,-,N/A,,Clear,260,2014-03-08 19:35:00
2:55 PM,69.4,34.7,28,29.99,10.0,SW,5.8,-,N/A,,Clear,230,2014-03-08 19:55:00
3:15 PM,70.0,35.4,28,29.99,10.0,West,6.9,-,N/A,,Clear,280,2014-03-08 20:15:00
3:35 PM,70.0,36.0,29,29.99,10.0,West,4.6,-,N/A,,Clear,260,2014-03-08 20:35:00
3:55 PM,70.3,38.3,31,29.99,10.0,SW,8.1,-,N/A,,Clear,230,2014-03-08 20:55:00
4:15 PM,68.5,37.8,32,29.98,10.0,South,9.2,-,N/A,,Clear,190,2014-03-08 21:15:00
4:35 PM,68.4,38.5,33,29.98,10.0,South,11.5,20.7,N/A,,Clear,180,2014-03-08 21:35:00
4:55 PM,68.0,39.0,35,29.98,10.0,SW,8.1,19.6,N/A,,Clear,220,2014-03-08 21:55:00
5:15 PM,67.3,38.8,35,29.99,10.0,South,10.4,-,N/A,,Clear,190,2014-03-08 22:15:00
5:35 PM,66.6,39.4,37,29.99,10.0,South,9.2,-,N/A,,Clear,180,2014-03-08 22:35:00
5:55 PM,65.3,38.7,38,29.99,10.0,South,6.9,-,N/A,,Clear,170,2014-03-08 22:55:00
6:15 PM,63.3,38.8,40,30.00,10.0,South,4.6,-,N/A,,Clear,180,2014-03-08 23:15:00
6:35 PM,63.5,38.3,39,30.01,10.0,South,4.6,-,N/A,,Clear,170,2014-03-08 23:35:00
6:55 PM,63.1,38.3,40,30.01,10.0,SSE,4.6,-,N/A,,Clear,160,2014-03-08 23:55:00
7:15 PM,62.6,37.6,40,30.01,10.0,SSE,3.5,-,N/A,,Clear,160,2014-03-09 00:15:00
7:35 PM,61.5,36.9,40,30.01,10.0,Calm,Calm,-,N/A,,Clear,0,2014-03-09 00:35:00
7:55 PM,59.9,37.4,43,30.02,10.0,WNW,5.8,-,N/A,,Clear,300,2014-03-09 00:55:00
8:15 PM,57.7,38.1,48,30.02,10.0,Calm,Calm,-,N/A,,Clear,0,2014-03-09 01:15:00
8:35 PM,56.8,37.9,49,30.02,10.0,Calm,Calm,-,N/A,,Clear,0,2014-03-09 01:35:00
8:55 PM,51.3,39.2,63,30.02,10.0,NW,4.6,-,N/A,,Clear,310,2014-03-09 01:55:00
9:15 PM,53.2,38.8,58,30.02,10.0,Calm,Calm,-,N/A,,Clear,0,2014-03-09 02:15:00
9:35 PM,51.3,39.6,64,30.02,10.0,Calm,Calm,-,N/A,,Clear,0,2014-03-09 02:35:00
9:55 PM,50.2,40.3,69,30.03,10.0,NNW,3.5,-,N/A,,Clear,330,2014-03-09 02:55:00
10:15 PM,48.6,40.3,73,30.03,10.0,WNW,8.1,-,N/A,,Clear,300,2014-03-09 03:15:00
10:35 PM,48.4,38.5,69,30.03,10.0,NW,8.1,16.1,N/A,,Clear,310,2014-03-09 03:35:00
10:55 PM,51.1,35.1,54,30.02,10.0,NW,8.1,-,N/A,,Clear,310,2014-03-09 03:55:00
11:15 PM,55.9,32.0,40,30.03,10.0,West,4.6,-,N/A,,Clear,260,2014-03-09 04:15:00
11:35 PM,57.2,31.1,37,30.03,10.0,WSW,4.6,-,N/A,,Clear,250,2014-03-09 04:35:00
11:55 PM,57.0,31.6,38,30.03,10.0,WSW,4.6,-,N/A,,Clear,250,2014-03-09 04:55:00